Winnipeg, Manitoba

1:48 AM CST on November 19, 2017 (GMT -0600)
Winnipeg International Airport

Weather History for CYWG - January, 2013

Change the Weather History Date:

Saturday, January 12, 2013

  Actual Average Record
Temperature  
Mean Temperature -8 °F -  
Max Temperature -1 °F 11 °F 32 °F (2014)
Min Temperature -14 °F -8 °F -34 °F (2007)
Degree Days  
Heating Degree Days 72    
Moisture  
Dew Point -10 °F    
Average Humidity 72    
Maximum Humidity 92    
Minimum Humidity 49    
Precipitation  
Precipitation 0.04 in 0.02 in - ()
Sea Level Pressure  
Sea Level Pressure 30.03 in    
Wind  
Wind Speed 21 mph ()    
Max Wind Speed 31 mph    
Max Gust Speed 38 mph    
Visibility 6.9 miles    
Events Snow    
Averages and records for this station are not official NWS values.
T = Trace of Precipitation, MM = Missing Value Source: Averaged Metar Reports

Daily Weather History Graph

Daily Weather History Graph

Search for Another Location

Airport or City:

Trip Planner

Search our weather history database for the weather conditions in past years. The results will help you decide how hot, cold, wet, or windy it might be!

Date:

Astronomy

Jan. 12, 2013 Rise Set
Actual Time 8:22 AM CST 4:52 PM CST
Civil Twilight 7:45 AM CST 5:29 PM CST
Nautical Twilight 7:05 AM CST 6:09 PM CST
Astronomical Twilight 6:26 AM CST 6:48 PM CST
Moon 8:32 AM CST (1/12) 6:35 PM CST (1/12)
Length of Visible Light 9h 43m
Length of Day
8h 29m
New Moon, 1% of the Moon is Illuminated
Jan 12
New Moon
Jan 18
First Quarter
Jan 26
Full
Feb 3
Last Quarter
Feb 10
New

Hourly Weather History & Observations

Time (CST) Temp. Windchill Dew Point Humidity Pressure Visibility Wind Dir Wind Speed Gust Speed Precip Events Conditions
12:00 AM 6 °F - 4 °F 88% 29.77 in 0 mi Calm Calm - -   Unknown Precipitation
12:00 AM 6.8 °F -16.6 °F 5.0 °F 92% 29.77 in 0.5 mi North 29.9 mph 36.8 mph N/A Snow Light Snow
1:00 AM 5.0 °F -18.7 °F 1.4 °F 85% 29.78 in 0.5 mi North 28.8 mph 35.7 mph N/A Snow Light Snow
2:00 AM 3.2 °F -21.8 °F -5.8 °F 66% 29.80 in 0.5 mi North 31.1 mph 38.0 mph N/A Snow Light Snow
3:00 AM 1.4 °F -22.3 °F -4.0 °F 78% 29.82 in 0.5 mi North 25.3 mph 36.8 mph N/A Snow Light Snow
3:25 AM 1.4 °F -21.4 °F - N/A% - 0.8 mi North 23.0 mph 33.4 mph N/A Snow Light Snow
4:00 AM 1.4 °F -21.4 °F -4.0 °F 78% 29.84 in 0.8 mi North 23.0 mph 29.9 mph N/A Snow Light Snow
5:00 AM -2.2 °F -28.4 °F -7.6 °F 78% 29.86 in 0.8 mi North 28.8 mph 35.7 mph N/A Snow Light Snow
6:00 AM -1 °F - -10 °F 49% 29.90 in 0 mi Calm Calm - -   Unknown Precipitation
6:00 AM -0.4 °F -24.7 °F -9.4 °F 66% 29.90 in 0.8 mi North 25.3 mph 34.5 mph N/A Snow Light Snow
7:00 AM -2.2 °F -26.2 °F -9.4 °F 71% 29.94 in 0.8 mi NNW 23.0 mph 32.2 mph N/A Snow Light Snow
7:17 AM -2.2 °F -28.0 °F - N/A% - 1.2 mi North 27.6 mph - N/A Snow Light Snow
8:00 AM -2.2 °F -28.0 °F -9.4 °F 71% 29.97 in 1.2 mi North 27.6 mph - N/A Snow Light Snow
9:00 AM -2.2 °F -27.1 °F -9.4 °F 71% 30.01 in 1.8 mi NNW 25.3 mph 32.2 mph N/A Snow Light Snow
9:13 AM -4.0 °F -29.6 °F - N/A% - 2.0 mi NNW 25.3 mph 31.1 mph N/A Snow Blowing Snow
9:42 AM -4.0 °F -29.6 °F - N/A% - 3.0 mi North 25.3 mph 31.1 mph N/A Snow Blowing Snow
10:00 AM -4.0 °F -28.6 °F -11.2 °F 71% 30.04 in 6.0 mi North 23.0 mph - N/A Snow Blowing Snow
11:00 AM -5.8 °F -29.4 °F -11.2 °F 77% 30.06 in 8.0 mi NNW 19.6 mph 26.5 mph N/A Snow Low Drifting Snow
12:00 PM -5 °F - -11 °F 63% 30.07 in 7 mi Calm Calm - -  
12:00 PM -4.0 °F -27.0 °F -11.2 °F 71% 30.07 in 10.0 mi NNW 19.6 mph - N/A Snow Low Drifting Snow
1:00 PM -4.0 °F -26.4 °F -9.4 °F 78% 30.09 in 15.0 mi NW 18.4 mph - N/A Snow Low Drifting Snow
2:00 PM -4.0 °F -26.4 °F -9.4 °F 78% 30.12 in 15.0 mi NNW 18.4 mph - N/A Snow Low Drifting Snow
3:00 PM -2.2 °F -24.1 °F -9.4 °F 71% 30.14 in 15.0 mi NW 18.4 mph - N/A Snow Low Drifting Snow
4:00 PM -5.8 °F -28.2 °F -13.0 °F 71% 30.17 in 15.0 mi NW 17.3 mph - N/A Snow Low Drifting Snow
5:00 PM -7.6 °F -26.6 °F -16.6 °F 65% 30.18 in 15.0 mi NW 11.5 mph - N/A   Scattered Clouds
6:00 PM -8 °F - -16 °F 55% 30.21 in 9 mi Calm Calm - -  
6:00 PM -7.6 °F -27.5 °F -14.8 °F 71% 30.21 in 15.0 mi NW 12.7 mph - N/A   Overcast
7:00 PM -9.4 °F -28.9 °F -16.6 °F 71% 30.22 in 15.0 mi NW 11.5 mph - N/A   Mostly Cloudy
8:00 PM -11.2 °F -29.0 °F -18.4 °F 70% 30.23 in 15.0 mi NNW 9.2 mph - N/A   Clear
9:00 PM -14.8 °F -30.8 °F -22.0 °F 70% 30.24 in 15.0 mi NW 6.9 mph - N/A   Clear
10:00 PM -13.0 °F -25.1 °F -22.0 °F 64% 30.23 in 15.0 mi WNW 4.6 mph - N/A   Clear
11:00 PM -13.0 °F -25.1 °F -20.2 °F 70% 30.24 in 15.0 mi West 4.6 mph - N/A   Clear